Showing default

LT-1 01A, 51284

Orbit data source: Space-Track

LT-1 01A, 51284 is a payload satellite owned by SAST (CN) in SSO that was launched on Tue, 25 Jan 2022 UTC via a CHANG ZHENG 4C launch vehicle from the Jiuquan Satellite Launch Center, China (JSC). Payload-class satellites include a variety of spacecraft equipped with specific instruments for various scientific and technological missions. These include communications satellites like Starlink; space stations such as the ISS; scientific satellites like the Hubble; Earth observation satellites from companies like Planet Labs, Umbra, and HawkEye 360; GPS; miniature CubeSats for education and research; and military/defense satellites.

Loading next visibility...
Identifier
51284, 2022-007A
Orbit
SSO
Country
Flag of CNCN / PRC
Related business
Manufacturer
SAST
Mission
Operational Civil Radar Imaging
Bus & Motor
LSAR, AOCS 20N
Mass
3,200 kg wet, ~2,500 kg dry
Launch date (UTC)
2022-01-25 (4 years ago)
Launch vehicle
CHANG ZHENG 4C
Launch site
Jiuquan Satellite Launch Center, China (JSC)
Object type
Payload
Rocket body
Debris
Shape & HBR
Box + 4 Pan, 5.0 m
Radar Cross Section
14.608 m², Large (>1 m²)

Expand to show TLE details & history
Last TLE update: 10 hours ago

TLE from 10 hours ago
0 LT-1 01A
1 51284U 22007A   25312.87863144  .00001247  00000-0  14043-3 0  9994
2 51284  97.8108 318.4742 0001618  87.5700 272.5702 14.88410642205704
Epoch: 2025-11-08T21:05Z
TLE epoch observation values (Epoch: 2025-11-08T21:05:13.756Z)
Latitude
-0.00002°
Longitude
-46.13504°
Altitude
605.886 km
Speed
7.556 km/s
True Right ascension
21h 13m 53s
True Declination
0° 00' 00"
Sunlit
Object was in daylight at epoch
Visualization orbit readout
Latitude
Unknown
Longitude
Unknown
Altitude
Unknown
Speed
Unknown
Apparent Right ascension
Unknown
Apparent Declination
Unknown
Sunlit
N/A
Visualization observer readout
Local Sidereal Time
03:14:44
Azimuth
Unknown
Elevation
Unknown
Doppler factor
Unknown
Orbital elements
Apogee altitude
601.056 km
Perigee altitude
598.798 km
Semi-major axis
6,978.064 km
Eccentricity
0.00016
Inclination
97.8108°
RAAN
318.4742°
Arg. of periapsis
87.57°
True anomaly
272.55168°
Mean anomaly
272.5702°
Eccentric anomaly
272.56094°
Mean motion
3.72341 °/min
Orbital period
96.69 mins
BSTAR
0.00014043
Loading maneuver chart data...
Computing Atmospheric mass density...
Loading historical data...
Loading historical data...
Loading historical data...
Loading historical data...
Loading historical data...
Loading historical data...
Loading historical data...
Other satellites on launch #7 in the year 2022 (2022-01-25 UTC)

Documentation

Showing up to 5 results
|